Location: Olsztyn
(53.7767°N, 20.4765°E)
Time: 19:32:52
(UTC+02:00)

A-11 Canister half - Pass Details

Date: 23 January 2022
Orbit: 1513 x 1686 km, 47.2° (Epoch: 24 May)

Event Time Altitude Azimuth Distance (km) Brightness Sun altitude
Rises 21:07:11 0° 273° (W) 4,688 12.2 -43.6°
Reaches altitude 10° 21:10:20 10° 269° (W) 3,691 11.4 -44.0°
Enters shadow 21:15:33 35° 249° (WSW) 2,258 9.9 -44.6°
